Regional Weather Roundup
Issued by NWS Cleveland, OH

Home | Current Version | Previous Version | Graphics & Text | Print | Product List | Glossary On
Versions: 1 2 3 4 5 6 7 8 9 10 11 12 13 14 15 16 17 18 19 20 21 22 23 24 25 26 27 28 29 30 31 32 33 34 35 36 37 38 39 40 41 42 43 44 45 46 47 48 49 50
017
ASUS41 KCLE 141800
RWRCLE
OHIO REGIONAL WEATHER ROUNDUP
NATIONAL WEATHER SERVICE WILMINGTON, OH
100 PM EST SUN FEB 14 2016

NOTE: "FAIR" INDICATES FEW OR NO CLOUDS BELOW 12,000 FEET WITH NO
SIGNIFICANT WEATHER AND/OR OBSTRUCTIONS TO VISIBILITY.

OHZ001>008-015>018-024>027-034-035-043-044-141900-
   NORTHWEST OHIO

CITY           SKY/WX    TMP DP  RH WIND       PRES   REMARKS
DEFIANCE       FAIR      19   4  51 SE9       30.35F WCI   8
FINDLAY        FAIR      20   6  55 S15       30.36F WCI   6
TOLEDO EXPRESS FAIR      17   3  54 SE12G17   30.38F WCI   4
TOLEDO EXEC    FAIR      18   3  52 SE12      30.39F WCI   5
LIMA           FAIR      18   5  57 S14       30.33F WCI   4
$$

OHZ009>014-019>023-028>033-038-089-141900-
   NORTHEAST OHIO

CITY           SKY/WX    TMP DP  RH WIND       PRES   REMARKS
CLE-HOPKINS    PTSUNNY   16   0  49 S8        30.43F WCI   5
CLE-LAKEFRONT  PTSUNNY   17   2  51 SE8       30.42F WCI   7
CUY CO. ARPT   PTSUNNY   18   1  49 S12       30.41F WCI   5
LORAIN-ELYRIA  FAIR      14  -1  51 SE12      30.40F WCI   0
ASHTABULA      PTSUNNY   12   0  58 SE7       30.42F WCI   1
AKRON-CANTON   PTSUNNY   14  -1  51 S8        30.37F WCI   3
WOOSTER        NOT AVBL
MANSFIELD      FAIR      15   2  56 SE14      30.32F WCI   0
YOUNGSTOWN     CLOUDY    13   1  59 VRB3      30.40F
$$

OHZ042-051>053-060>062-070>072-077>081-141900-
  SOUTHWEST OHIO

CITY           SKY/WX    TMP DP  RH WIND       PRES   REMARKS
CINC-COVINGTON CLOUDY    19   6  57 SE13      30.29F WCI   6
CINC-LUNKEN    CLOUDY    20   5  52 E12       30.35F WCI   8
HAMILTON       CLOUDY    21   3  45 E6        30.33F WCI  13
DAYTON         NOT AVBL
WRIGHT-PAT AFB NOT AVBL
DAYTON GENERAL CLOUDY    17   2  51 SE10      30.32F WCI   5
WILMINGTON     CLOUDY    16   4  59 SE9       30.33F WCI   4
$$

OHZ036-037-039>041-045>050-054>059-063>069-073>076-082>088-141900-
  CENTRAL AND SOUTHEAST OHIO

CITY           SKY/WX    TMP DP  RH WIND       PRES   REMARKS
COLUMBUS       PTSUNNY   16   2  54 SE12G17   30.39F WCI   3
OSU AIRPORT    FAIR      17   4  56 SE12      30.37F WCI   4
BOLTON FIELD   SUNNY     16   7  67 SE10      30.39F WCI   3
RICKENBACK AFB NOT AVBL
NEWARK         FAIR      18   3  52 SE9       30.37F WCI   7
MARION         FAIR      19   4  51 S13       30.36F WCI   6
LANCASTER      FAIR      18   4  54 SE10      30.39F WCI   6
ZANESVILLE     FAIR      19   3  49 SE9       30.38F WCI   8
NEW PHILLY     FAIR      17  32 100 SE6       30.41F WCI   9
$$




USA.gov is the U.S. government's official web portal to all federal, state and local government web resources and services.